User: anonymous   Login
Location: Lafig�re
(44.4503°N, 4.0357°E)
Time: 21:56:49
(UTC+00:00)
Language:

Cosmos 2150 Rocket - Orbit

View from above orbital plane
View from above orbital plane
View from above satellite
View from above satellite

Ground track
Ground track

The orbit data is extracted from the following two-line orbital elements,

1 21419U 91041B   21134.60328147  .00000065  00000-0  32159-4 0  9999
2 21419  74.0402 208.4836 0040295 148.5977 211.7593 14.33997424564748
Epoch (UTC): 14 May 2021 14:28:43
Eccentricity: 0.0040295
inclination: 74.0402°
perigee height: 749 km
apogee height: 807 km
right ascension of ascending node: 208.4836°
argument of perigee: 148.5977°
revolutions per day: 14.33997424
mean anomaly at epoch: 211.7593°
orbit number at epoch: 56474

The dashed part of the orbit path shows where the satellite is in the earth's shadow,  

DLR